This demonstration page uses our WeatherBlox Daily Observations layout. Learn more.

Left ArrowRight Arrow

Hourly Observations for November 9, 2015

Temp ( °F °C ) Dew Point ( °F °C ) Humidity (%) Winds ( mph kmh ) Pressure ( in mb ) Visibility ( mi km ) Precip ( " mm )
12:00 am 00:00 Mostly Cloudy with Fog 48 9 45 7 87 87 Calm 29.91 1013 0 0 0.00 0.00
12:53 am 00:53 Mostly Cloudy with Fog 47 8.3 45 7.2 93 93 Calm 29.88 1012 0 0 0.00 0.00
1:35 am 01:35 Mostly Cloudy with Fog 48 8.9 45 7.2 89 89 S 5 7 29.91 1013 0 0 0.00 0.00
1:53 am 01:53 Mostly Cloudy with Fog 47 8.3 44 6.7 90 90 WSW 3 6 29.89 1012 0 0 0.00 0.00
2:04 am 02:04 Mostly Cloudy with Fog 46 8 45 7 93 93 Calm 29.91 1013 1 1 0.00 0.00
2:19 am 02:19 Cloudy with Mist and Fog 48 8.9 45 7.2 89 89 WNW 3 6 29.91 1013 1 2 0.00 0.00
2:43 am 02:43 Cloudy with Mist and Fog 47 8.3 44 6.7 90 90 Calm 29.91 1013 1 1 0.00 0.00
2:53 am 02:53 Cloudy with Mist and Fog 47 8.3 44 6.7 90 90 Calm 29.88 1012 1 1 0.00 0.00
3:08 am 03:08 Cloudy with Mist and Fog 46 8 45 7 93 93 WNW 5 7 29.91 1013 2 2 0.00 0.00
3:11 am 03:11 Cloudy with Mist and Fog 47 8.3 44 6.7 90 90 WNW 5 7 29.91 1013 3 5 0.00 0.00
3:43 am 03:43 Mostly Cloudy with Mist and Fog 47 8.3 44 6.7 90 90 NW 6 9 29.91 1013 4 6 0.00 0.00
3:51 am 03:51 Mostly Cloudy with Mist and Fog 46 8 45 7 93 93 NW 6 9 29.91 1013 4 6 0.00 0.00
3:53 am 03:53 Mostly Cloudy with Mist and Fog 47 8.3 44 6.7 90 90 NNW 5 7 29.88 1012 5 8 0.00 0.00
4:27 am 04:27 Cloudy with Mist and Fog 48 8.9 44 6.7 86 86 N 5 7 29.91 1013 6 10 0.00 0.00
4:53 am 04:53 Cloudy with Mist and Fog 48 8.9 45 7.2 89 89 NNE 5 7 29.88 1012 5 8 0.00 0.00
5:10 am 05:10 Cloudy with Mist and Fog 48 9 45 7 87 87 NNW 7 11 29.91 1013 6 10 0.00 0.00
5:42 am 05:42 Cloudy with Light Rain 48 9 45 7 87 87 ESE 5 7 29.91 1013 5 8 0.00 0.00
5:53 am 05:53 Cloudy with Mist and Fog 47 8.3 44 6.7 90 90 Calm 29.89 1012 6 10 0.00 0.03
6:07 am 06:07 Cloudy 48 8.9 44 6.7 86 86 ENE 3 6 29.91 1013 7 11 0.00 0.00
6:37 am 06:37 Cloudy 47 8.3 44 6.7 90 90 Calm 29.91 1013 10 16 0.00 0.00
6:53 am 06:53 Cloudy with Rain 48 8.9 44 6.7 86 86 Calm 29.90 1012 8 13 0.00 0.03
7:06 am 07:06 Cloudy 48 8.9 44 6.7 86 86 Calm 29.94 1014 9 14 0.01 0.25
7:38 am 07:38 Cloudy with Rain 46 8 45 7 93 93 N 5 7 29.94 1014 2 3 0.00 0.00
7:48 am 07:48 Cloudy with Light Rain 48 9 45 7 87 87 Calm 29.94 1014 3 5 0.00 0.00
7:49 am 07:49 Cloudy with Light Rain 48 9 45 7 87 87 N 3 6 29.94 1014 4 6 0.00 0.00
8:00 am 08:00 Cloudy with Light Rain 48 9 45 7 87 87 WSW 3 6 29.94 1014 8 13 0.00 0.00
8:53 am 08:53 Cloudy 49 9.4 45 7.2 86 86 N 5 7 29.92 1013 10 16 0.01 0.25
9:53 am 09:53 Cloudy 49 9.4 45 7.2 86 86 N 6 9 29.92 1013 10 16 0.00 0.00
10:23 am 10:23 Cloudy with Light Rain 48 8.9 44 6.7 86 86 N 7 11 29.94 1014 10 16 0.00 0.03
10:53 am 10:53 Cloudy with Light Rain 48 8.9 44 6.7 86 86 N 8 13 29.92 1013 10 16 0.00 0.03
11:13 am 11:13 Cloudy with Light Rain 49 9.4 44 6.7 83 83 NNW 6 9 29.94 1014 10 16 0.00 0.03
11:53 am 11:53 Cloudy with Light Rain 48 8.9 43 6.1 83 83 N 9 15 29.92 1013 10 16 0.00 0.03
12:32 pm 12:32 Cloudy with Light Rain 48 9 43 6 82 82 NNW 7 11 29.94 1014 5 8 0.00 0.00
12:53 pm 12:53 Cloudy with Light Rain 48 8.9 43 6.1 83 83 N 8 13 29.92 1013 9 14 0.01 0.25
1:06 pm 13:06 Cloudy with Rain 47 8.3 42 5.6 83 83 E 8 13 29.94 1014 5 8 0.01 0.25
1:32 pm 13:32 Cloudy with Light Rain 46 8 43 6 87 87 NNE 5 7 29.94 1014 6 10 0.00 0.00
1:42 pm 13:42 Cloudy with Light Rain 46 8 43 6 87 87 NNE 6 9 29.94 1014 7 11 0.00 0.00
1:53 pm 13:53 Cloudy with Light Rain 48 8.9 43 6.1 83 83 NNE 6 9 29.92 1013 8 13 0.04 1.02
2:16 pm 14:16 Cloudy with Light Rain 48 9 45 7 87 87 NE 5 7 29.94 1014 4 6 0.00 0.00
2:51 pm 14:51 Cloudy with Light Rain 48 9 43 6 82 82 NE 3 6 29.94 1014 5 8 0.05 1.27
2:53 pm 14:53 Cloudy with Light Rain 47 8.3 43 6.1 86 86 NE 3 6 29.94 1014 6 10 0.05 1.27
3:53 pm 15:53 Cloudy with Light Rain 47 8.3 43 6.1 86 86 N 7 11 29.96 1014 8 13 0.03 0.76
4:53 pm 16:53 Cloudy with Light Rain 47 8.3 43 6.1 86 86 N 6 9 29.96 1015 10 16 0.02 0.51
5:53 pm 17:53 Cloudy 47 8.3 43 6.1 86 86 NNW 3 6 29.98 1015 10 16 0.01 0.25
6:53 pm 18:53 Cloudy 47 8.3 43 6.1 86 86 N 5 7 29.99 1016 10 16 0.00 0.00
7:53 pm 19:53 Cloudy 47 8.3 43 6.1 86 86 NNE 5 7 30.00 1016 10 16 0.00 0.00
8:53 pm 20:53 Cloudy 46 7.8 41 5 83 83 Calm 30.02 1017 10 16 0.00 0.00
9:53 pm 21:53 Mostly Cloudy 44 6.7 41 5 89 89 WNW 3 6 30.03 1017 10 16 0.00 0.00
10:14 pm 22:14 Mostly Cloudy with Mist and Fog 45 7 39 4 81 81 WNW 5 7 30.03 1017 3 4 0.00 0.00
10:32 pm 22:32 Mostly Clear with Mist and Fog 43 6 39 4 87 87 WNW 3 6 30.03 1017 4 6 0.00 0.00
10:53 pm 22:53 Clear with Mist and Fog 43 6.1 39 3.9 86 86 Calm 30.04 1017 6 10 0.00 0.00
11:06 pm 23:06 Mostly Clear with Mist and Fog 43 6 39 4 87 87 Calm 30.03 1017 2 3 0.00 0.00
11:11 pm 23:11 Partly Cloudy with Mist and Fog 43 6.1 39 3.9 86 86 NNE 3 6 30.03 1017 1 1 0.00 0.00
11:27 pm 23:27 Mostly Cloudy with Fog 41 5 38 3.3 89 89 NNE 3 6 30.03 1017 1 1 0.00 0.00
11:42 pm 23:42 Cloudy with Fog 41 5 37 3 87 87 Calm 30.03 1017 0 0 0.00 0.00
11:53 pm 23:53 Cloudy with Fog 40 4.4 37 2.8 89 89 Calm 30.04 1017 1 1 0.00 0.00

Powered by AerisWeather